timestamp,surface_pressure_avg,surface_temp_avg,battery_voltage,lat,long
2018-12-16 00:00:00+00:00,225.6248,3.3,12.81,47.84626,-54.09684
2018-12-16 00:10:00+00:00,230.5181,3.3,12.73,47.84626,-54.09684
2018-12-16 00:20:00+00:00,235.8064,3.3,12.81,47.84626,-54.09684
2018-12-16 00:30:00+00:00,237.3298,3.3,12.81,47.84626,-54.09684
2018-12-16 00:40:00+00:00,237.5047,3.3,12.89,47.84626,-54.09684
2018-12-16 00:50:00+00:00,238.9781,3.3,12.89,47.84626,-54.09684
2018-12-16 01:00:00+00:00,239.1114,3.32,12.81,47.84626,-54.09684
2018-12-16 01:10:00+00:00,242.4748,3.35,12.73,47.84626,-54.09684
2018-12-16 01:20:00+00:00,242.5531,3.34,12.81,47.84626,-54.09684
2018-12-16 01:30:00+00:00,241.0565,3.3,12.81,47.84626,-54.09684
2018-12-16 01:40:00+00:00,242.9898,3.3,12.89,47.84626,-54.09684
2018-12-16 01:50:00+00:00,247.5547,3.3,12.89,47.84626,-54.09684
2018-12-16 02:00:00+00:00,249.3981,3.3,12.81,47.84626,-54.09684
2018-12-16 02:10:00+00:00,252.6214,3.3,12.73,47.84626,-54.09684
2018-12-16 02:20:00+00:00,256.2064,3.3,12.81,47.84626,-54.09684
2018-12-16 02:30:00+00:00,255.0464,3.3,12.81,47.84626,-54.09684
2018-12-16 02:40:00+00:00,254.4497,3.3,12.81,47.84626,-54.09684
2018-12-16 02:50:00+00:00,258.963,3.3,12.89,47.84626,-54.09684
2018-12-16 03:00:00+00:00,266.558,3.3,12.81,47.84626,-54.09684
2018-12-16 03:10:00+00:00,266.1397,3.3,12.73,47.84626,-54.09684
2018-12-16 03:20:00+00:00,265.3997,3.3,12.81,47.84626,-54.09684
2018-12-16 03:30:00+00:00,269.4847,3.3,12.81,47.84626,-54.09684
2018-12-16 03:40:00+00:00,282.098,3.3,12.81,47.84626,-54.09684
2018-12-16 03:50:00+00:00,285.6331,3.29,12.89,47.84626,-54.09684
2018-12-16 04:00:00+00:00,289.8147,3.2,12.81,47.84626,-54.09684
2018-12-16 04:10:00+00:00,289.9613,3.2,12.73,47.84626,-54.09684
2018-12-16 04:20:00+00:00,291.6647,3.2,12.81,47.84626,-54.09684
2018-12-16 04:30:00+00:00,292.0598,3.2,12.81,47.84626,-54.09684
2018-12-16 04:40:00+00:00,300.098,3.2,12.81,47.84626,-54.09684
2018-12-16 04:50:00+00:00,304.3297,3.2,12.81,47.84626,-54.09684
2018-12-16 05:00:00+00:00,301.8097,3.13,12.73,47.84626,-54.09684
2018-12-16 05:10:00+00:00,304.118,3.1,12.73,47.84626,-54.09684
2018-12-16 05:20:00+00:00,311.7747,3.1,12.81,47.84626,-54.09684
2018-12-16 05:30:00+00:00,320.0663,3.1,12.81,47.84626,-54.09684
2018-12-16 05:40:00+00:00,323.7647,3.1,12.81,47.84626,-54.09684
2018-12-16 05:50:00+00:00,325.7113,3.09,12.81,47.84626,-54.09684
2018-12-16 06:00:00+00:00,330.578,3.1,12.73,47.84626,-54.09684
2018-12-16 06:10:00+00:00,335.4529,3.1,12.73,47.84626,-54.09684
2018-12-16 06:20:00+00:00,338.1047,3.1,12.81,47.84626,-54.09684
2018-12-16 06:30:00+00:00,336.5813,3.1,12.81,47.84626,-54.09684
2018-12-16 06:40:00+00:00,336.3263,3.11,12.81,47.84626,-54.09684
2018-12-16 06:50:00+00:00,339.0996,3.16,12.81,47.84626,-54.09684
2018-12-16 07:00:00+00:00,336.2079,3.19,12.73,47.84626,-54.09684
2018-12-16 07:10:00+00:00,331.5181,3.2,12.73,47.84626,-54.09684
2018-12-16 07:20:00+00:00,325.0197,3.2,12.81,47.84626,-54.09684
2018-12-16 07:30:00+00:00,320.3813,3.2,12.81,47.84626,-54.09684
2018-12-16 07:40:00+00:00,312.4414,3.2,12.81,47.84626,-54.09684
2018-12-16 07:50:00+00:00,304.1397,3.2,12.81,47.84626,-54.09684
2018-12-16 08:00:00+00:00,304.4847,3.2,12.73,47.84626,-54.09684
2018-12-16 08:10:00+00:00,301.9531,3.2,12.73,47.84626,-54.09684
2018-12-16 08:20:00+00:00,289.9197,3.2,12.81,47.84626,-54.09684
2018-12-16 08:30:00+00:00,280.9897,3.2,12.81,47.84626,-54.09684
2018-12-16 08:40:00+00:00,278.7897,3.2,12.81,47.84626,-54.09684
2018-12-16 08:50:00+00:00,274.6297,3.17,12.81,47.84626,-54.09684
2018-12-16 09:00:00+00:00,267.0814,3.14,12.73,47.84626,-54.09684
2018-12-16 09:10:00+00:00,260.9681,3.16,12.73,47.84626,-54.09684
2018-12-16 09:20:00+00:00,254.9998,3.15,12.81,47.84626,-54.09684
2018-12-16 09:30:00+00:00,249.5181,3.1,12.81,47.84626,-54.09684
2018-12-16 09:40:00+00:00,247.4814,3.1,12.81,47.84626,-54.09684
2018-12-16 09:50:00+00:00,244.8864,3.1,12.81,47.84626,-54.09684
2018-12-16 10:00:00+00:00,242.4514,3.1,12.73,47.84626,-54.09684
2018-12-16 10:10:00+00:00,244.5081,3.1,12.73,47.84626,-54.09684
2018-12-16 10:20:00+00:00,246.7464,3.1,12.81,47.84626,-54.09684
2018-12-16 10:30:00+00:00,243.5664,3.09,12.81,47.84626,-54.09684
2018-12-16 10:40:00+00:00,244.773,3.09,12.81,47.84626,-54.09684
2018-12-16 10:50:00+00:00,248.3914,3.09,12.81,47.84626,-54.09684
2018-12-16 11:00:00+00:00,242.2581,3.04,12.73,47.84626,-54.09684
2018-12-16 11:10:00+00:00,236.4847,3.06,12.65,47.84626,-54.09684
2018-12-16 11:20:00+00:00,239.2464,3.09,12.81,47.84626,-54.09684
2018-12-16 11:30:00+00:00,240.8581,3.1,12.81,47.84626,-54.09684
2018-12-16 11:40:00+00:00,236.3498,3.1,12.81,47.84626,-54.09684
2018-12-16 11:50:00+00:00,233.2948,3.08,12.81,47.84626,-54.09684
2018-12-16 12:00:00+00:00,234.7314,3.0,12.73,47.84626,-54.09684
2018-12-16 12:10:00+00:00,235.3181,3.0,12.65,47.84626,-54.09684
2018-12-16 12:20:00+00:00,232.7298,3.0,12.81,47.84626,-54.09684
2018-12-16 12:30:00+00:00,233.1231,2.96,12.81,47.84626,-54.09684
2018-12-16 12:40:00+00:00,234.8431,2.9,12.89,47.84626,-54.09684
2018-12-16 12:50:00+00:00,234.2431,2.9,12.97,47.84626,-54.09684
2018-12-16 13:00:00+00:00,237.0697,2.9,12.97,47.84626,-54.09684
2018-12-16 13:10:00+00:00,245.4948,2.9,13.13,47.84626,-54.09684
2018-12-16 13:20:00+00:00,251.3664,2.89,13.6,47.84626,-54.09684
2018-12-16 13:30:00+00:00,250.4797,2.86,14.0,47.84626,-54.09684
2018-12-16 13:40:00+00:00,255.0298,2.86,14.72,47.84626,-54.09684
2018-12-16 13:50:00+00:00,262.0248,2.85,15.75,47.84626,-54.09684
2018-12-16 14:00:00+00:00,265.9014,2.87,15.44,47.84626,-54.09684
2018-12-16 14:10:00+00:00,267.3581,2.88,15.75,47.84626,-54.09684
2018-12-16 14:20:00+00:00,271.9114,2.85,16.23,47.84626,-54.09684
2018-12-16 14:30:00+00:00,274.3097,2.8,15.6,47.84626,-54.09684
2018-12-16 14:40:00+00:00,280.0497,2.8,15.27,47.84626,-54.09684
2018-12-16 14:50:00+00:00,283.1581,2.93,15.11,47.84626,-54.09684
2018-12-16 15:00:00+00:00,284.2463,2.85,14.96,47.84626,-54.09684
2018-12-16 15:10:00+00:00,285.1647,2.9,14.8,47.84626,-54.09684
2018-12-16 15:20:00+00:00,291.1348,2.9,15.04,47.84626,-54.09684
2018-12-16 15:30:00+00:00,294.623,2.9,14.96,47.84626,-54.09684
2018-12-16 15:40:00+00:00,294.398,2.8,14.96,47.84626,-54.09684
2018-12-16 15:50:00+00:00,297.998,2.8,14.96,47.84626,-54.09684
2018-12-16 16:00:00+00:00,304.0129,2.8,14.88,47.84626,-54.09684
2018-12-16 16:10:00+00:00,305.863,2.8,14.88,47.84626,-54.09684
2018-12-16 16:20:00+00:00,303.638,2.81,14.96,47.84626,-54.09684
2018-12-16 16:30:00+00:00,308.463,2.82,14.96,47.84626,-54.09684
2018-12-16 16:40:00+00:00,319.1113,2.85,14.96,47.84626,-54.09684
2018-12-16 16:50:00+00:00,322.9263,2.8,14.88,47.84626,-54.09684
2018-12-16 17:00:00+00:00,319.8796,2.8,14.8,47.84626,-54.09684
2018-12-16 17:10:00+00:00,328.5946,2.8,14.72,47.84626,-54.09684
2018-12-16 17:20:00+00:00,336.8997,2.83,14.88,47.84626,-54.09684
2018-12-16 17:30:00+00:00,325.9663,2.82,14.8,47.84626,-54.09684
2018-12-16 17:40:00+00:00,322.6213,2.85,14.8,47.84626,-54.09684
2018-12-16 17:50:00+00:00,330.7847,2.88,14.8,47.84626,-54.09684
2018-12-16 18:00:00+00:00,337.4963,2.89,14.64,47.84626,-54.09684
2018-12-16 18:10:00+00:00,332.2146,2.88,14.64,47.84626,-54.09684
2018-12-16 18:20:00+00:00,331.5397,2.89,14.72,47.84626,-54.09684
2018-12-16 18:30:00+00:00,337.4246,2.89,14.64,47.84626,-54.09684
2018-12-16 18:40:00+00:00,338.8346,2.89,14.64,47.84626,-54.09684
2018-12-16 18:50:00+00:00,335.278,2.9,14.56,47.84626,-54.09684
2018-12-16 19:00:00+00:00,333.118,2.9,14.32,47.84626,-54.09684
2018-12-16 19:10:00+00:00,329.9097,2.9,14.08,47.84626,-54.09684
2018-12-16 19:20:00+00:00,326.4046,2.9,14.0,47.84626,-54.09684
2018-12-16 19:30:00+00:00,320.933,2.9,13.92,47.84626,-54.09684
2018-12-16 19:40:00+00:00,320.7113,2.9,13.84,47.84626,-54.09684
2018-12-16 19:50:00+00:00,319.913,2.9,13.76,47.84626,-54.09684
2018-12-16 20:00:00+00:00,314.5764,2.9,13.6,47.84626,-54.09684
2018-12-16 20:10:00+00:00,309.1431,2.89,13.44,47.84626,-54.09684
2018-12-16 20:20:00+00:00,305.9864,2.89,13.44,47.84626,-54.09684
2018-12-16 20:30:00+00:00,304.1347,2.9,13.37,47.84626,-54.09684
2018-12-16 20:40:00+00:00,295.858,2.9,13.37,47.84626,-54.09684
2018-12-16 20:50:00+00:00,288.2831,2.88,13.37,47.84626,-54.09684
2018-12-16 21:00:00+00:00,282.7531,2.88,13.29,47.84626,-54.09684
2018-12-16 21:10:00+00:00,278.5597,2.86,13.13,47.84626,-54.09684
2018-12-16 21:20:00+00:00,277.3514,2.8,13.21,47.84626,-54.09684
2018-12-16 21:30:00+00:00,280.6998,2.87,13.13,47.84626,-54.09684
2018-12-16 21:40:00+00:00,279.0481,2.89,13.13,47.84626,-54.09684
2018-12-16 21:50:00+00:00,276.0881,2.8,13.13,47.84626,-54.09684
2018-12-16 22:00:00+00:00,272.2914,2.8,13.05,47.84626,-54.09684
2018-12-16 22:10:00+00:00,272.0964,2.8,12.97,47.84626,-54.09684
2018-12-16 22:20:00+00:00,267.553,2.88,13.05,47.84626,-54.09684
2018-12-16 22:30:00+00:00,262.1664,2.89,13.05,47.84626,-54.09684
2018-12-16 22:40:00+00:00,262.9797,2.89,13.05,47.84626,-54.09684
2018-12-16 22:50:00+00:00,266.0331,2.9,13.13,47.84626,-54.09684
2018-12-16 23:00:00+00:00,260.3931,2.9,13.05,47.84626,-54.09684
2018-12-16 23:10:00+00:00,253.5581,2.9,12.97,47.84626,-54.09684
2018-12-16 23:20:00+00:00,257.5981,2.9,13.05,47.84626,-54.09684
2018-12-16 23:30:00+00:00,256.6781,2.9,13.05,47.84626,-54.09684
2018-12-16 23:40:00+00:00,250.6681,2.8,13.05,47.84626,-54.09684
2018-12-16 23:50:00+00:00,244.5681,2.7,13.05,47.84626,-54.09684
